Location: ??
(35.1714°N, 128.2806°E)
Time: 05:04:23
(UTC+00:00)

Tiangong - Pass Details

Date: 27 June 2021
Orbit: 373 x 385 km, 41.5° (Epoch: 04 August)

Event Time Altitude Azimuth Distance (km) Brightness Sun altitude
Exits shadow 19:01:30 - 297° (WNW) 2,100 4.6 -13.0°
Reaches altitude 10° 19:03:18 10° 305° (NW) 1,387 3.7 -12.8°
Maximum altitude 19:06:15 37° 16° (NNE) 603 2.6 -12.3°
Drops below altitude 10° 19:09:13 10° 86° (E) 1,393 4.8 -11.8°
Sets 19:11:23 0° 95° (E) 2,247 5.7 -11.5°
